Location: Erbach
(49.6615°N, 8.9940°E)
Time: 05:45:15
(UTC+00:00)

Daily predictions for brighter satellites

Satellite Brightness Start Highest point End
(mag) Time Altitude Azimuth Time Altitude Azimuth Time Altitude Azimuth
Cosmos 2227 Rocket 2.6 00:02:01 10° NW 00:07:25 46° WSW 00:09:26 33° SSW
Cosmos 1844 Rocket 4.5 00:03:25 10° NNW 00:08:21 30° NE 00:13:15 10° ESE
GEOS 3 Rocket 4.3 00:07:55 10° NE 00:13:02 54° NW 00:17:31 14° WSW
Cosmos 1238 Rocket 4.3 00:12:31 10° N 00:17:31 43° ENE 00:20:49 18° SE
IDEFIX/ARIANE 42P 4.0 00:14:06 10° NE 00:18:30 27° E 00:21:28 17° SE
Landsat 4 4.1 00:18:25 32° E 00:19:00 37° ENE 00:21:37 10° N
Cosmos 1441 Rocket 4.1 00:20:22 28° W 00:21:11 32° WNW 00:24:20 10° N
H-2A R/B 4.5 00:23:57 10° ENE 00:26:09 14° E 00:28:22 10° ESE
Cosmos 2221 2.9 00:22:12 10° N 00:26:24 57° ENE 00:28:33 27° SE
Cosmos 1315 Rocket 4.1 00:26:34 10° NW 00:29:43 25° W 00:30:17 24° WSW
SeaSat 1 4.3 00:26:12 10° ESE 00:30:27 31° NE 00:34:43 10° NNW
Okean 1 3.0 00:27:08 10° N 00:30:53 85° ENE 00:32:02 43° SSE
Cosmos 1125 Rocket 3.8 00:30:24 27° SW 00:33:11 60° WNW 00:38:24 10° NNE
Cosmos 1812 Rocket 3.5 00:29:00 10° N 00:33:24 83° ENE 00:35:20 33° SSE
Geosat 4.3 00:28:45 10° NNE 00:33:41 60° NW 00:36:37 24° SW
Meteor 1-26 Rocket 4.5 00:29:15 10° NNW 00:34:25 49° W 00:36:45 30° SSW
SL-23 DEB 4.4 00:36:43 30° SE 00:36:43 30° SE 00:39:12 10° E
Cosmos 1346 Rocket 4.4 00:35:27 18° SE 00:37:06 24° E 00:40:08 10° NE
Nadezhda 1 Rocket 3.9 00:30:52 10° N 00:37:07 85° W 00:40:50 25° S
Cosmos 2150 Rocket 4.2 00:36:24 30° S 00:39:05 72° ESE 00:44:31 10° NNE
CENTAUR R/B 3.9 00:37:30 15° SSE 00:40:28 23° ESE 00:45:26 10° ENE
Meteor 2-6 Rocket 4.3 00:34:42 10° NNW 00:40:31 81° W 00:44:03 26° S
H-2A R/B 2.3 00:41:17 41° SSW 00:42:28 65° WSW 00:46:22 10° NNW
Okean 1-7 Rocket 3.7 00:42:59 31° S 00:45:02 70° E 00:49:34 10° NNE
Cosmos 2322 Rocket 4.0 00:43:02 11° SE 00:46:46 20° E 00:50:47 10° NE
Cosmos 614 Rocket 4.5 00:42:23 10° NW 00:47:07 40° WSW 00:48:55 30° SSW
Cosmos 1745 Rocket 4.0 00:44:17 26° S 00:48:05 88° ESE 00:54:30 10° N
Cosmos 1825 Rocket 4.2 00:46:00 25° SSE 00:48:13 48° E 00:52:27 10° NNE
ADEOS II 4.4 00:46:48 10° NE 00:49:53 16° E 00:52:57 10° SE
ATLAS 5 CENTAUR R/B 2.5 00:46:38 10° NW 00:50:49 53° NE 00:56:00 10° ESE
MOZ.5/SAFIR/RUBIN 5/SL-8 4.3 00:52:02 14° SE 00:55:57 56° ENE 01:00:34 10° N
Cosmos 2263 Rocket 2.8 00:51:21 10° NW 00:56:29 37° WSW 00:58:41 27° SSW
Cosmos 1709 Rocket 4.0 00:57:16 23° S 01:01:26 83° E 01:07:45 10° N
CZ-2C R/B 3.3 00:56:54 10° N 01:01:31 52° WNW 01:04:01 25° SW
USA 32 4.3 01:00:07 27° SSW 01:02:51 58° W 01:08:01 10° N
Meteor 1-27 Rocket 4.3 00:57:17 10° N 01:03:11 59° ENE 01:08:59 10° SSE
Cosmos 2082 3.9 00:57:45 10° NW 01:03:14 50° WSW 01:06:25 24° S
Cosmos 2369 3.7 01:01:32 25° SW 01:04:55 78° WNW 01:10:36 10° NNE
MSX 4.1 01:00:48 10° NNE 01:06:31 64° ESE 01:10:26 21° S
Cosmos 2181 Rocket 4.5 01:01:47 10° N 01:07:51 57° ENE 01:13:52 10° SSE
Cosmos 1602 Rocket 3.9 01:07:34 28° SW 01:09:33 52° WNW 01:13:50 10° N
Cosmos 2298 Rocket 4.1 01:07:44 25° SW 01:10:51 70° WNW 01:16:10 10° NNE
FENGYUN 3A 4.3 01:09:20 10° NNE 01:14:36 50° E 01:18:43 16° S
SL-16 R/B 2.6 01:13:38 21° S 01:17:17 55° ESE 01:22:49 10° NE
Cosmos 2219 4.1 01:13:32 10° NW 01:18:26 31° WSW 01:20:47 22° SW
Cosmos 2333 Rocket 3.2 01:15:34 15° SSE 01:19:38 37° ESE 01:24:49 10° NE
USA 290 4.3 01:17:50 10° WNW 01:19:33 16° W 01:19:33 16° W
Meteor 1-10 Rocket 4.3 01:15:12 10° NNW 01:20:57 72° W 01:25:25 18° S
Spot 2 4.5 01:20:18 27° SSW 01:21:52 39° W 01:25:38 10° NNW
USA 276 3.3 01:22:20 22° SE 01:22:20 22° SE 01:24:16 10° E
Cosmos 1842 Rocket 4.1 01:18:22 10° N 01:22:44 58° ENE 01:26:56 10° SSE
BREEZE M DEB (TANK) 2.3 01:21:29 15° W 01:23:23 62° SSW 01:28:00 10° ESE
BREEZE-M DEB 4.1 01:09:43 10° W 01:24:16 85° SSW 01:28:06 10° ESE
ATLAS 2AS CENTAUR R/B 3.3 01:19:07 10° NW 01:25:07 35° WSW 01:29:12 18° S
Meteor 2-4 Rocket 4.3 01:21:15 10° N 01:26:31 53° ENE 01:31:44 10° SSE
Cosmos 44 Rocket 3.7 01:25:06 22° S 01:27:49 49° ESE 01:32:23 10° NE
Cosmos 1707 3.3 01:26:18 10° N 01:29:29 43° ENE 01:32:32 11° SSE
Cosmos 921 Rocket 4.0 01:25:43 10° NW 01:29:34 30° W 01:31:10 23° SW
Cosmos 1743 2.2 01:28:38 29° S 01:30:15 90° ESE 01:33:37 10° N
Cosmos 1980 Rocket 3.2 01:25:56 14° WSW 01:30:22 37° NW 01:35:35 10° NNE
NPP 3.6 01:28:08 10° NNE 01:33:35 89° W 01:37:32 19° SSW
Meteor 1-20 Rocket 4.3 01:33:05 20° SSW 01:37:15 77° WNW 01:43:01 10° N
Cosmos 2151 3.7 01:35:22 22° SW 01:37:34 39° WNW 01:41:28 10° N
Lacrosse 5 rocket 3.2 01:36:13 10° W 01:37:12 13° WSW 01:37:12 13° WSW
KORONAS-FOTON 3.7 01:35:43 10° N 01:39:17 75° E 01:42:14 14° SSE
Cosmos 1023 Rocket 4.4 01:34:28 10° NNW 01:39:39 77° WSW 01:44:50 10° SSE
CZ-2C R/B 4.2 01:37:53 16° SW 01:40:25 22° W 01:44:39 10° NW
Cosmos 1140 Rocket 3.4 01:36:33 10° NNW 01:41:44 79° WSW 01:46:54 10° SSE
Resurs 1-4 Rocket 2.5 01:38:25 10° NNE 01:43:41 61° ESE 01:48:25 13° S
Cosmos 1842 3.1 01:45:23 10° N 01:48:47 70° E 01:52:08 10° SSE
Cosmos 1076 Rocket 3.5 01:46:03 20° SSW 01:48:57 72° W 01:53:13 10° N
Cosmos 1844 Rocket 2.7 01:47:04 10° NW 01:52:37 60° WSW 01:58:06 10° S
SJ 16-02 4.3 01:50:02 10° N 01:52:52 17° NE 01:55:42 10° E
Cosmos 407 Rocket 3.6 01:51:23 10° NNW 01:56:40 81° ENE 02:01:57 10° SSE
Cosmos 1844 3.8 01:51:20 10° NW 01:56:57 62° WSW 02:02:36 10° SSE
CZ-2D R/B 2.3 01:52:02 10° NNE 01:57:16 72° ESE 02:02:07 12° S
IDEFIX/ARIANE 42P 3.0 01:53:12 10° N 01:58:11 48° WNW 02:02:09 16° SW
Cosmos 1151 Rocket 4.2 01:54:39 10° N 01:58:48 44° ENE 02:02:53 10° SSE
EP 1 4.2 01:58:02 10° NW 02:00:37 63° SW 02:03:33 10° SSE
Cosmos 2184 Rocket 4.2 01:54:17 10° S 02:00:38 77° E 02:07:03 10° NNE
H-2A R/B 2.0 01:57:48 10° N 02:02:02 73° WNW 02:05:29 16° SSW
Cosmos 2221 4.3 02:00:26 10° NW 02:03:03 16° W 02:04:55 13° WSW
Cosmos 1953 Rocket 4.0 02:04:16 16° SW 02:07:25 45° WNW 02:11:35 10° N
ATLAS CENTAUR R/B 3.6 02:05:47 10° SE 02:07:27 13° ESE 02:09:09 10° E
SeaSat 1 2.5 02:02:50 10° SSE 02:07:37 54° WSW 02:12:26 10° NW
Cosmos 2360 Rocket 2.4 02:03:04 13° SSW 02:08:02 68° ESE 02:13:38 10° NNE
Cosmos 1346 Rocket 3.9 02:09:59 15° WSW 02:12:22 28° WNW 02:15:37 10° N
Cosmos 2278 3.9 02:08:06 14° SW 02:12:53 65° WNW 02:18:31 10° NNE
Cosmos 2154 Rocket 4.1 02:06:46 10° S 02:13:02 82° E 02:19:23 10° N
ARIANE 6 FM1 Upper Stage 4.1 02:10:43 10° S 02:14:05 27° ESE 02:17:29 10° ENE
Cosmos 1733 3.3 02:14:22 17° SW 02:16:18 38° WNW 02:19:08 10° N
Molniya-1 4.5 02:19:20 12° WSW 02:22:38 69° NW 02:32:26 10° NE
Cosmos 2219 Rocket 2.8 02:17:20 10° S 02:22:45 52° ESE 02:28:10 10° NE
H-2A R/B 3.4 02:20:32 10° NNE 02:25:01 34° E 02:29:28 10° SSE
Cosmos 2074 Rocket 4.1 02:19:42 10° SSW 02:25:53 71° WNW 02:32:08 10° N
Cosmos 405 Rocket 3.9 02:26:06 10° SSE 02:29:01 32° E 02:31:59 10° NNE
CENTAUR R/B 2.6 02:24:36 12° SW 02:30:01 81° NW 02:37:18 10° NE
ADEOS II 2.1 02:24:52 10° NNE 02:30:08 85° WNW 02:35:23 10° SSW
Cosmos 2322 Rocket 2.3 02:24:50 12° SW 02:30:11 76° WNW 02:35:51 10° NNE
ALOS 2.2 02:28:06 10° NNE 02:32:41 78° WNW 02:37:15 10° SSW
ATLAS 5 CENTAUR R/B 2.6 02:29:30 10° WNW 02:33:37 32° WSW 02:38:31 10° S
Meteor 2-13 Rocket 4.5 02:28:35 10° NNW 02:34:43 78° W 02:40:50 10° S
Meteor 1-28 Rocket 3.7 02:32:43 10° SSE 02:36:00 55° ENE 02:39:18 10° N
Meteor 1-18 Rocket 4.2 02:33:15 10° NNW 02:38:45 65° W 02:44:13 10° S
Cosmos 2251 Rocket 3.5 02:34:01 10° NNW 02:39:20 75° WSW 02:44:33 10° SSE
Lacrosse 4 Rocket 4.3 02:39:40 10° ESE 02:40:09 10° ESE 02:40:39 10° E
NOSS 3-2 (A) 3.4 02:37:52 10° SSW 02:42:53 68° SE 02:48:57 10° NE
DMSP B5D2-2 4.1 02:37:56 10° S 02:43:08 65° WSW 02:48:20 10° NNW
Envisat 3.0 02:38:49 10° NNE 02:43:54 76° WNW 02:48:57 10° SSW
Cosmos 1420 Rocket 4.2 02:40:10 10° SSW 02:45:24 75° ESE 02:50:39 10° NNE
SL-23 DEB 3.8 02:43:47 10° W 02:46:55 68° N 02:50:55 10° ENE
Cosmos 2278 Rocket 3.9 02:46:25 10° NNW 02:51:46 39° NE 02:57:04 10° ESE
Cosmos 1190 Rocket 4.0 02:47:50 10° NNW 02:53:00 72° WSW 02:58:09 10° SSE
NOAA 11 4.5 02:48:34 10° N 02:53:54 57° WNW 02:59:11 10° SW
Cosmos 1437 Rocket 3.5 02:50:26 10° N 02:54:05 53° ENE 02:57:39 10° SSE
SL-16 R/B 2.6 02:49:29 10° S 02:55:44 71° WSW 03:02:02 10° NNW
